Wind_Speed
31 26 24 25 24 25 26 25 23 21 23 25 24 22 20 20 19 18 17 16 16 16 16 16 15 15 15 14 13 13 13 12 12 12 12 11 11 11 11 11 12 12 12 12
34 30 25 25 26 25 26 27 25 23 23 27 27 23 22 21 20 20 19 19 18 18 18 18 17 17 16 16 15 14 14 14 14 14 14 13 13 13 14 14 13 14 14 14
35 32 30 30 27 26 26 26 27 27 28 28 27 27 25 23 21 22 22 21 20 19 19 20 20 19 18 18 17 17 17 17 16 16 16 16 15 15 15 15 16 15 16 15
35 33 35 31 29 28 28 28 28 29 30 30 29 27 26 26 25 25 24 23 23 22 21 21 21 21 21 21 20 19 19 19 19 18 18 17 17 17 17 17 18 17 17 17
35 34 34 31 30 30 30 30 29 30 31 31 30 29 28 28 27 26 25 25 25 24 24 23 24 24 23 22 22 22 21 21 20 20 18 18 18 18 18 19 19 19 19 19
35 34 33 31 30 30 31 33 32 32 32 31 31 30 30 29 29 28 26 26 26 26 26 25 25 24 24 24 23 22 22 23 22 20 19 19 19 20 21 21 21 21 21 21
35 34 34 30 30 29 31 33 33 34 34 33 33 32 31 30 30 29 28 27 27 26 27 26 26 25 25 25 24 24 24 24 23 22 22 22 22 22 23 23 23 23 23 23
36 35 34 30 30 31 30 31 33 34 33 33 32 32 32 31 31 30 29 28 27 27 27 27 27 27 26 26 26 25 25 25 24 23 23 24 25 25 25 25 25 25 25 25
39 39 37 34 34 34 33 33 33 33 33 33 33 32 32 31 31 31 30 29 29 28 28 28 28 27 28 28 27 27 27 27 26 26 26 26 26 27 26 26 27 26 26 26
41 41 40 37 36 35 35 35 35 35 34 35 34 33 32 32 31 31 31 30 30 29 29 28 29 28 28 28 28 28 29 28 28 28 28 28 27 27 27 27 27 27 28 28
41 41 41 41 38 37 37 37 36 36 35 35 35 34 32 32 31 31 30 30 30 29 29 29 29 29 29 29 29 30 29 29 29 29 28 28 28 28 29 29 29 29 29 30
41 40 40 39 38 38 38 37 37 36 36 35 36 34 32 32 32 31 31 30 30 30 29 29 29 29 29 30 30 30 30 30 29 29 30 30 30 30 30 30 31 31 31 31
41 41 39 38 38 38 39 38 37 36 36 36 36 35 34 34 33 32 31 31 30 30 30 29 29 30 30 30 30 30 30 30 30 30 31 31 31 32 32 31 32 32 32 33
39 39 37 36 37 38 39 37 36 36 36 36 36 36 36 35 33 33 32 31 31 30 30 30 29 29 29 30 30 30 30 30 30 30 31 31 32 32 32 32 32 33 32 33
36 37 38 37 38 37 36 36 35 35 35 35 34 34 34 33 33 33 32 31 31 31 30 30 29 29 30 30 30 31 31 31 31 31 31 32 32 32 32 32 33 33 33 33
36 36 36 35 35 36 36 35 35 35 34 34 34 33 33 33 33 32 32 32 32 31 31 31 31 30 30 30 30 30 30 30 31 31 32 32 32 32 33 33 33 33 33 33
34 34 34 34 35 35 35 35 34 34 34 34 34 33 33 34 34 34 34 33 32 32 32 32 31 31 30 30 30 31 30 31 31 32 32 32 33 33 33 33 33 33 33 32
32 32 33 33 33 33 34 34 34 33 33 33 33 34 33 33 33 33 33 33 32 32 32 32 32 31 31 31 31 31 31 31 32 32 32 33 33 33 33 33 33 33 32 33
31 32 32 32 31 31 30 31 31 32 32 33 33 32 32 32 32 32 32 32 32 32 32 32 32 32 32 32 31 31 31 32 32 33 33 32 32 32 33 33 33 34 34 33
29 29 29 29 29 29 28 28 29 30 31 31 31 31 31 31 31 31 31 32 32 32 32 33 32 31 31 30 30 31 31 31 32 32 32 33 32 32 33 33 34 34 34 34
28 28 29 30 29 29 28 28 27 28 29 30 30 30 30 30 31 31 31 31 31 31 31 31 31 30 30 31 31 31 31 32 31 32 32 32 31 32 33 33 34 34 34 34
25 26 28 29 29 29 28 28 28 28 29 29 28 28 28 28 29 29 29 30 29 29 29 29 29 29 29 30 30 31 31 31 31 30 30 30 30 30 32 33 34 34 34 34
23 24 25 27 27 27 26 26 25 25 26 26 27 27 28 28 28 28 28 28 28 28 28 28 28 29 29 30 29 30 30 29 28 29 29 29 30 31 32 33 34 33 33 32
22 22 23 24 24 24 24 24 24 24 23 24 25 26 26 26 26 27 26 26 25 27 27 27 28 28 28 28 28 28 28 28 28 29 29 29 29 30 31 32 32 31 32 32
20 20 21 21 22 22 22 23 23 22 22 22 22 23 24 23 23 23 24 24 24 26 27 27 26 26 25 25 25 26 26 27 26 27 27 28 29 29 29 30 30 31 32 32
17 18 19 19 19 19 19 20 20 20 20 20 21 21 21 22 22 22 23 23 23 23 24 23 23 23 24 24 24 25 25 25 25 26 27 29 29 29 29 30 30 31 32 32
14 15 15 16 16 16 16 17 17 17 18 18 18 18 19 20 20 21 21 22 22 22 21 22 22 22 23 23 23 23 23 24 25 26 27 28 28 29 29 30 31 32 33 33
Wind_Direction
218 221 227 234 234 230 226 224 230 241 250 255 259 257 261 266 266 266 270 269 271 276 278 277 278 282 286 286 288 289 289 291 295 297 299 299 302 307 310 313 316 316 316 315
222 219 224 230 234 234 233 229 228 234 245 251 255 257 259 260 263 266 266 268 268 272 276 277 276 278 280 280 281 284 287 288 289 292 293 290 294 298 301 304 306 308 308 309
226 223 226 230 230 232 233 233 231 233 240 248 254 257 260 261 263 265 266 267 268 269 272 275 278 277 276 277 278 280 283 284 285 286 287 286 286 291 295 298 299 300 300 301
229 228 230 230 232 233 235 234 233 235 238 245 250 254 258 258 259 262 265 266 267 269 272 272 274 276 276 278 279 281 282 283 283 281 283 283 283 286 291 291 294 295 296 297
230 232 235 232 232 233 235 235 234 236 240 242 247 252 255 256 258 261 262 264 266 268 270 271 272 273 274 277 280 280 281 283 284 283 282 282 281 283 287 289 289 290 292 294
230 231 235 235 234 236 237 238 235 236 240 242 246 252 254 255 257 259 261 262 263 265 266 269 271 270 272 276 278 279 280 281 284 282 281 282 283 284 286 286 286 287 289 291
229 231 233 235 235 234 238 239 238 239 242 243 246 249 254 257 258 260 260 261 262 264 266 266 266 268 271 273 276 277 278 278 281 280 279 281 282 283 284 285 286 286 288 289
229 231 234 233 233 233 236 239 241 242 243 244 247 249 252 255 257 258 259 260 262 264 267 268 266 267 270 272 274 275 277 279 279 278 280 280 280 281 282 282 284 287 287 287
231 231 232 232 235 235 237 239 243 245 245 247 248 250 253 255 255 256 258 260 262 265 267 267 267 266 268 271 274 275 276 278 278 278 278 280 282 283 284 284 285 285 286 286
233 233 233 233 234 236 238 241 244 246 247 249 251 250 251 253 254 256 257 260 263 264 265 265 265 266 267 269 272 273 275 277 278 279 279 280 280 284 286 286 287 287 288 287
232 231 233 236 235 236 239 243 246 248 250 250 250 251 252 254 255 255 256 258 262 264 263 264 265 266 266 268 269 272 274 277 278 278 279 280 282 284 285 286 287 288 288 288
233 234 235 236 237 238 241 244 246 247 248 249 250 251 251 253 254 255 256 258 260 262 263 263 265 266 267 268 269 271 274 276 277 278 279 280 281 282 283 285 287 288 288 287
233 235 238 238 238 239 242 245 246 247 248 250 250 251 252 252 253 254 255 257 259 259 261 263 265 267 268 267 268 269 272 274 275 277 278 281 281 282 283 284 285 287 287 288
234 236 237 238 241 242 242 244 246 247 249 249 250 250 250 251 252 253 254 255 256 258 260 262 264 266 267 268 267 268 270 273 275 277 279 280 282 283 284 285 286 286 287 288
236 236 237 239 241 241 241 243 244 245 246 248 248 249 249 250 250 250 251 252 253 256 259 261 262 264 267 268 268 268 270 273 276 278 279 281 282 283 284 285 286 286 286 287
235 236 237 240 238 237 240 242 244 244 246 247 248 249 249 249 248 247 248 251 252 254 257 260 262 264 267 268 268 269 271 273 276 278 280 281 282 283 284 285 286 286 286 287
233 233 235 236 235 236 239 241 242 244 246 248 248 248 248 248 248 248 249 250 253 255 258 261 263 263 266 268 269 270 272 274 276 278 279 281 283 285 286 286 286 286 286 287
231 232 235 236 237 237 239 241 243 244 245 247 248 247 247 247 248 247 249 250 252 255 258 261 263 263 265 268 269 271 272 274 276 278 280 282 284 284 284 285 286 287 287 288
230 232 233 235 237 237 238 240 241 242 244 244 244 244 245 246 246 247 248 250 252 255 257 261 263 263 265 268 269 270 272 274 276 279 281 282 283 284 285 286 287 289 290 288
229 228 229 232 234 236 238 240 240 240 242 243 243 244 245 245 246 247 248 250 253 256 258 260 262 263 265 267 268 270 272 274 275 278 281 281 281 283 285 286 289 289 290 290
231 230 230 232 233 235 238 240 241 242 243 244 244 244 244 244 246 247 249 251 254 257 259 262 264 266 266 267 268 269 272 275 276 278 281 280 281 284 285 287 288 290 291 292
231 231 231 231 232 235 238 240 243 244 244 244 243 243 243 244 246 248 249 252 254 256 259 263 266 268 269 271 270 271 275 276 277 279 280 281 284 287 288 289 290 291 292 292
228 230 231 232 233 235 237 240 243 245 245 243 241 241 243 244 245 246 249 251 253 256 259 263 266 268 269 270 271 272 274 275 276 279 282 283 285 288 288 290 292 292 292 293
227 229 231 231 233 236 238 241 243 244 246 244 241 241 242 244 245 247 250 252 254 256 258 261 264 268 271 270 271 273 274 276 278 280 282 285 287 290 291 292 293 293 294 294
226 227 229 231 232 234 236 238 240 243 244 242 242 241 241 245 248 249 252 254 254 255 259 262 263 266 270 272 273 275 277 279 281 282 285 288 291 292 292 293 294 295 296 296
220 223 225 228 229 230 235 238 241 244 244 243 242 242 244 246 247 249 251 252 254 255 258 260 263 267 271 273 274 276 277 278 281 284 286 288 290 291 292 293 296 297 298 299
212 215 218 223 226 230 234 236 239 241 241 242 242 243 244 246 248 250 252 255 256 257 260 263 265 269 272 274 274 276 279 283 286 288 289 289 290 292 294 295 296 298 299 300
Height
5857 5862 5866 5869 5872 5875 5879 5882 5886 5888 5888 5886 5887 5887 5889 5889 5890 5890 5891 5892 5892 5892 5892 5892 5892 5892 5892 5891 5891 5891 5891 5891 5891 5890 5890 5889 5889 5889 5888 5887 5887 5886 5885 5885
5850 5855 5859 5863 5866 5870 5873 5876 5880 5883 5883 5881 5882 5882 5883 5885 5886 5886 5887 5888 5888 5889 5888 5888 5888 5888 5888 5888 5887 5887 5887 5887 5888 5887 5886 5886 5886 5886 5885 5885 5884 5883 5882 5882
5842 5848 5851 5855 5860 5864 5867 5870 5873 5876 5877 5875 5876 5877 5878 5879 5880 5881 5882 5883 5884 5885 5885 5884 5883 5883 5883 5883 5883 5883 5883 5882 5883 5883 5882 5882 5882 5882 5882 5881 5881 5880 5879 5878
5835 5840 5842 5850 5854 5857 5860 5863 5866 5868 5869 5869 5869 5871 5872 5874 5875 5876 5877 5878 5879 5879 5880 5880 5879 5879 5878 5878 5879 5879 5879 5878 5878 5878 5878 5878 5877 5877 5877 5877 5876 5876 5875 5874
5827 5831 5835 5841 5845 5848 5852 5854 5858 5860 5861 5862 5863 5865 5866 5867 5869 5870 5871 5872 5873 5873 5874 5874 5874 5874 5874 5874 5874 5874 5874 5873 5873 5872 5872 5872 5872 5872 5872 5872 5871 5871 5870 5869
5819 5823 5827 5834 5837 5840 5844 5845 5849 5851 5852 5855 5856 5858 5859 5861 5862 5863 5865 5866 5866 5867 5868 5868 5868 5869 5869 5869 5869 5869 5869 5868 5868 5867 5868 5867 5867 5867 5867 5866 5866 5865 5864 5863
5810 5814 5819 5824 5827 5831 5835 5837 5840 5842 5844 5847 5849 5850 5852 5853 5855 5856 5858 5859 5860 5861 5861 5862 5863 5863 5863 5864 5864 5864 5863 5863 5862 5862 5862 5862 5862 5861 5861 5860 5859 5858 5857 5857
5801 5806 5812 5816 5818 5821 5823 5826 5830 5833 5836 5839 5841 5842 5844 5846 5847 5849 5851 5852 5853 5854 5855 5855 5856 5856 5856 5857 5857 5857 5857 5857 5855 5855 5855 5855 5855 5855 5854 5853 5853 5852 5851 5850
5792 5797 5801 5805 5807 5811 5815 5818 5822 5824 5828 5830 5832 5834 5836 5838 5840 5841 5843 5845 5846 5847 5847 5848 5849 5849 5850 5850 5850 5850 5850 5850 5850 5849 5849 5848 5848 5848 5847 5846 5845 5845 5844 5843
5781 5785 5791 5794 5798 5802 5806 5810 5813 5816 5819 5821 5823 5825 5827 5829 5831 5833 5835 5837 5838 5839 5840 5841 5841 5842 5843 5843 5843 5843 5843 5843 5843 5842 5842 5841 5841 5840 5840 5839 5838 5837 5836 5835
5770 5776 5780 5783 5787 5792 5796 5800 5804 5807 5810 5812 5814 5816 5819 5821 5824 5826 5827 5829 5830 5831 5832 5833 5834 5834 5835 5835 5836 5836 5836 5836 5835 5835 5834 5834 5833 5833 5832 5832 5830 5830 5828 5827
5760 5766 5770 5774 5778 5783 5786 5790 5794 5797 5800 5803 5805 5806 5809 5812 5815 5817 5819 5820 5822 5823 5823 5825 5826 5827 5827 5828 5828 5828 5828 5828 5828 5827 5827 5826 5825 5825 5824 5823 5822 5821 5820 5818
5751 5756 5761 5765 5769 5774 5777 5781 5785 5788 5790 5793 5796 5798 5800 5803 5806 5808 5810 5812 5813 5815 5815 5816 5818 5819 5819 5819 5820 5820 5820 5820 5820 5820 5819 5818 5817 5816 5815 5815 5813 5812 5811 5809
5741 5746 5751 5756 5760 5764 5767 5771 5774 5777 5780 5783 5786 5789 5791 5794 5796 5799 5801 5803 5805 5806 5808 5809 5810 5811 5811 5812 5812 5812 5812 5812 5812 5812 5811 5810 5809 5808 5807 5806 5805 5803 5801 5800
5732 5737 5741 5745 5749 5753 5757 5761 5764 5768 5771 5773 5776 5778 5781 5784 5787 5789 5792 5794 5796 5798 5799 5801 5802 5803 5803 5804 5804 5804 5804 5804 5804 5803 5802 5801 5800 5799 5798 5797 5795 5793 5792 5791
5723 5728 5732 5735 5739 5743 5748 5752 5755 5758 5761 5764 5767 5769 5771 5774 5777 5779 5782 5785 5787 5789 5791 5792 5794 5795 5795 5795 5795 5796 5796 5796 5795 5794 5794 5793 5791 5790 5789 5787 5785 5784 5782 5781
5715 5719 5724 5727 5730 5735 5739 5742 5745 5749 5752 5755 5757 5760 5762 5765 5768 5771 5774 5776 5778 5780 5782 5784 5785 5786 5787 5787 5787 5787 5787 5787 5786 5786 5785 5784 5783 5781 5779 5777 5775 5774 5772 5771
5707 5711 5714 5718 5722 5726 5730 5733 5736 5740 5743 5746 5748 5751 5753 5756 5759 5762 5765 5767 5769 5771 5773 5775 5776 5777 5778 5778 5778 5778 5779 5778 5777 5777 5776 5775 5774 5772 5770 5768 5766 5764 5762 5760
5698 5703 5706 5711 5715 5718 5722 5725 5728 5731 5734 5737 5739 5742 5745 5748 5751 5754 5756 5758 5760 5763 5765 5766 5767 5768 5769 5769 5769 5769 5769 5769 5769 5768 5767 5766 5764 5763 5761 5759 5757 5754 5752 5750
5691 5695 5699 5704 5707 5711 5714 5717 5720 5723 5726 5729 5731 5734 5737 5740 5743 5745 5748 5750 5753 5755 5756 5757 5758 5759 5760 5760 5760 5761 5760 5760 5759 5758 5758 5756 5755 5754 5752 5750 5748 5746 5744 5742
5685 5689 5693 5696 5700 5704 5708 5711 5713 5716 5719 5721 5724 5727 5729 5732 5735 5737 5740 5742 5745 5746 5748 5749 5750 5751 5751 5752 5752 5752 5751 5751 5750 5749 5748 5746 5745 5744 5742 5741 5739 5737 5735 5732
5679 5683 5687 5691 5694 5698 5701 5704 5707 5709 5711 5714 5716 5719 5722 5724 5727 5730 5732 5735 5737 5738 5740 5741 5742 5743 5743 5743 5743 5743 5743 5742 5741 5740 5739 5738 5737 5736 5734 5732 5729 5727 5725 5723
5674 5678 5682 5686 5689 5692 5695 5698 5700 5702 5704 5706 5709 5712 5714 5717 5719 5722 5725 5727 5729 5730 5732 5733 5734 5735 5735 5734 5734 5735 5734 5734 5733 5732 5731 5730 5729 5727 5725 5723 5720 5718 5715 5713
5670 5673 5677 5680 5684 5687 5690 5692 5694 5696 5698 5700 5703 5705 5708 5710 5713 5715 5717 5719 5721 5723 5725 5726 5727 5726 5726 5726 5726 5727 5726 5726 5725 5724 5723 5721 5720 5718 5716 5714 5711 5709 5706 5703
5666 5669 5673 5676 5679 5682 5684 5687 5688 5691 5693 5695 5697 5699 5702 5704 5706 5708 5710 5713 5715 5716 5717 5718 5719 5719 5719 5719 5719 5719 5719 5718 5717 5716 5715 5713 5711 5710 5708 5705 5702 5700 5697 5694
5663 5666 5669 5672 5675 5677 5679 5681 5684 5686 5688 5690 5692 5694 5697 5699 5701 5703 5705 5707 5708 5709 5710 5711 5712 5712 5712 5712 5712 5712 5711 5710 5709 5708 5706 5705 5703 5701 5699 5697 5694 5691 5688 5685
5660 5663 5666 5668 5671 5673 5675 5678 5680 5682 5684 5686 5688 5690 5692 5694 5695 5697 5699 5700 5702 5703 5704 5705 5705 5705 5705 5705 5705 5704 5703 5702 5701 5700 5698 5696 5694 5692 5690 5688 5685 5682 5679 5676